WFOV (USA 332)

Last updated on Thu Jul 03 2025 00:02:49 GMT+0000 (Coordinated Universal Time)

1 52940U 22073A 25183.62781994 -.00000356 00000+0 00000+0 0 9992 2 52940 2.8113 83.1233 0001435 326.8729 216.1773 1.00275436 10867
UTC large
Height (km)
Speed (km/s)
/
Latitude / Longitude
Inclination (degrees)
Orbital Period (minutes)
Azimuth
Elevation
Range (km)
Doppler Factor

Next 0 passes for location: London (51.5072 / 0.1276)

Sorry there are no passes over London.